• In Kazakhstan
  • List of Countries
  • For 7 days
  • Water Temperature
  • Satellite Maps
  • Weather Map
  • News
  • Weather Widgets
  • user-avatar
    Login

    Hourly Weather Kormanice

    Today, 20 February, Wednesday

    Time Temperature Precipitation Wind Pressure Humidity
    00:00 +4°C° 0 mm 4 mps 737 mmHg 80%
    01:00 +4°C° 0 mm 4 mps 737 mmHg 82%
    02:00 +4°C° 0 mm 2 mps 736 mmHg 88%
    03:00 +3°C° 0.4 mm 3 mps 736 mmHg 88%
    04:00 +3°C° 0.4 mm 4 mps 737 mmHg 89%
    05:00 +4°C° 0.4 mm 4 mps 737 mmHg 89%
    06:00 +3°C° 0 mm 4 mps 737 mmHg 90%
    07:00 +3°C° 0 mm 4 mps 737 mmHg 91%
    08:00 +1°C° 0 mm 4 mps 737 mmHg 92%
    09:00 +2°C° 0 mm 5 mps 737 mmHg 87%
    10:00 +2°C° 0 mm 5 mps 738 mmHg 83%
    11:00 +3°C° 0 mm 6 mps 738 mmHg 79%
    12:00 +3°C° 0.1 mm 6 mps 738 mmHg 75%
    13:00 +4°C° 0.1 mm 6 mps 738 mmHg 71%
    14:00 +5°C° 0 mm 6 mps 738 mmHg 64%
    15:00 +4°C° 0.1 mm 6 mps 739 mmHg 65%
    16:00 +5°C° 0.1 mm 5 mps 739 mmHg 65%
    17:00 +5°C° 0.1 mm 5 mps 739 mmHg 65%
    18:00 +3°C° 0 mm 5 mps 739 mmHg 69%
    19:00 +4°C° 0 mm 4 mps 739 mmHg 72%
    20:00 +3°C° 0 mm 4 mps 740 mmHg 76%
    21:00 +3°C° 0 mm 4 mps 740 mmHg 78%
    22:00 +3°C° 0 mm 4 mps 741 mmHg 79%
    23:00 +3°C° 0 mm 4 mps 741 mmHg 81%

    Tomorrow, 21 February, Thursday

    Time Temperature Precipitation Wind Pressure Humidity
    00:00 +3°C° 0 mm 4 mps 741 mmHg 83%
    01:00 +1°C° 0 mm 4 mps 741 mmHg 84%
    02:00 +1°C° 0 mm 4 mps 742 mmHg 86%
    03:00 +1°C° 0 mm 4 mps 742 mmHg 87%
    04:00 0°C° 0 mm 4 mps 742 mmHg 89%
    05:00 0°C° 0 mm 4 mps 742 mmHg 90%
    06:00 0°C° 0 mm 4 mps 742 mmHg 89%
    07:00 0°C° 0 mm 4 mps 742 mmHg 88%
    08:00 +1°C° 0 mm 4 mps 743 mmHg 87%
    09:00 +1°C° 0.1 mm 4 mps 743 mmHg 83%
    10:00 +3°C° 0.1 mm 4 mps 743 mmHg 79%
    11:00 +3°C° 0.1 mm 5 mps 743 mmHg 75%
    12:00 +5°C° 0 mm 5 mps 743 mmHg 72%
    13:00 +6°C° 0 mm 5 mps 742 mmHg 69%
    14:00 +7°C° 0 mm 5 mps 742 mmHg 66%
    15:00 +7°C° 0 mm 5 mps 742 mmHg 67%
    16:00 +6°C° 0 mm 4 mps 742 mmHg 68%
    17:00 +7°C° 0 mm 3 mps 741 mmHg 70%
    18:00 +6°C° 0 mm 4 mps 741 mmHg 71%
    19:00 +5°C° 0 mm 4 mps 741 mmHg 73%
    20:00 +5°C° 0 mm 4 mps 741 mmHg 74%
    21:00 +4°C° 0.3 mm 4 mps 740 mmHg 77%
    22:00 +4°C° 0.3 mm 4 mps 740 mmHg 79%
    23:00 +3°C° 0.3 mm 5 mps 740 mmHg 82%

    Day after tomorrow, 22 February, Friday

    Time Temperature Precipitation Wind Pressure Humidity
    00:00 +3°C° 0.8 mm 5 mps 739 mmHg 83%
    01:00 +3°C° 0.8 mm 5 mps 739 mmHg 84%
    02:00 +3°C° 0.8 mm 5 mps 739 mmHg 85%
    03:00 +3°C° 0.6 mm 5 mps 738 mmHg 86%
    04:00 +3°C° 0.6 mm 5 mps 738 mmHg 87%
    05:00 +3°C° 0.6 mm 5 mps 737 mmHg 88%
    06:00 +3°C° 1.1 mm 5 mps 738 mmHg 90%
    07:00 +2°C° 1.1 mm 5 mps 738 mmHg 92%
    08:00 +2°C° 1.1 mm 5 mps 738 mmHg 93%
    09:00 0°C° 0.7 mm 5 mps 739 mmHg 91%
    10:00 -2°C° 0.7 mm 5 mps 741 mmHg 88%
    11:00 -5°C° 0.7 mm 5 mps 742 mmHg 85%
    12:00 -4°C° 0.1 mm 6 mps 743 mmHg 79%
    13:00 -4°C° 0.1 mm 6 mps 744 mmHg 73%
    14:00 -4°C° 0.1 mm 6 mps 745 mmHg 67%
    15:00 -5°C° 0 mm 6 mps 745 mmHg 66%
    16:00 -5°C° 0 mm 6 mps 746 mmHg 65%
    17:00 -6°C° 0 mm 5 mps 747 mmHg 64%
    18:00 -6°C° 0 mm 5 mps 747 mmHg 64%
    19:00 -7°C° 0 mm 5 mps 748 mmHg 65%
    20:00 -8°C° 0 mm 5 mps 749 mmHg 66%
    21:00 -8°C° 0 mm 5 mps 750 mmHg 63%
    22:00 -8°C° 0 mm 4 mps 750 mmHg 60%
    23:00 -8°C° 0 mm 4 mps 751 mmHg 57%

    23 February, Saturday

    Time Temperature Precipitation Wind Pressure Humidity
    00:00 -8°C° 0 mm 4 mps 751 mmHg 56%
    01:00 -8°C° 0 mm 4 mps 751 mmHg 54%
    02:00 -8°C° 0 mm 4 mps 752 mmHg 53%
    03:00 -9°C° 0 mm 4 mps 752 mmHg 54%
    04:00 -9°C° 0 mm 4 mps 752 mmHg 55%
    05:00 -9°C° 0 mm 4 mps 752 mmHg 55%
    06:00 -9°C° 0 mm 4 mps 752 mmHg 56%
    07:00 -8°C° 0 mm 3 mps 752 mmHg 57%
    08:00 -8°C° 0 mm 3 mps 753 mmHg 58%
    09:00 -8°C° 0 mm 3 mps 753 mmHg 55%
    10:00 -8°C° 0 mm 4 mps 753 mmHg 53%
    11:00 -7°C° 0 mm 4 mps 754 mmHg 50%
    12:00 -7°C° 0 mm 4 mps 754 mmHg 47%
    13:00 -5°C° 0 mm 4 mps 754 mmHg 45%
    14:00 -5°C° 0 mm 3 mps 754 mmHg 42%
    15:00 -5°C° 0 mm 3 mps 754 mmHg 43%
    16:00 -5°C° 0 mm 3 mps 753 mmHg 43%
    17:00 -5°C° 0 mm 3 mps 753 mmHg 43%
    18:00 -5°C° 0 mm 3 mps 753 mmHg 46%
    19:00 -5°C° 0 mm 2 mps 754 mmHg 50%
    20:00 -3°C° 0 mm 1 mps 754 mmHg 53%
    21:00 -4°C° 0 mm 1 mps 754 mmHg 54%
    22:00 -4°C° 0 mm 1 mps 754 mmHg 54%
    23:00 -4°C° 0 mm 1 mps 754 mmHg 55%

    24 February, Sunday

    Time Temperature Precipitation Wind Pressure Humidity
    00:00 -4°C° 0 mm 1 mps 754 mmHg 55%
    01:00 -4°C° 0 mm 1 mps 753 mmHg 55%
    02:00 -4°C° 0 mm 1 mps 753 mmHg 56%
    03:00 -4°C° 0 mm 1 mps 753 mmHg 55%
    04:00 -4°C° 0 mm 1 mps 753 mmHg 55%
    05:00 -4°C° 0 mm 1 mps 752 mmHg 55%
    06:00 -4°C° 0 mm 1 mps 752 mmHg 53%
    07:00 -4°C° 0 mm 1 mps 752 mmHg 52%
    08:00 -6°C° 0 mm 2 mps 752 mmHg 51%
    09:00 -4°C° 0 mm 2 mps 752 mmHg 45%
    10:00 -3°C° 0 mm 2 mps 752 mmHg 40%
    11:00 -2°C° 0 mm 3 mps 752 mmHg 35%
    12:00 -1°C° 0 mm 3 mps 751 mmHg 35%
    13:00 0°C° 0 mm 3 mps 751 mmHg 36%
    14:00 +1°C° 0 mm 3 mps 750 mmHg 36%
    15:00 +1°C° 0 mm 3 mps 750 mmHg 39%
    16:00 +1°C° 0 mm 3 mps 749 mmHg 41%
    17:00 +1°C° 0 mm 3 mps 749 mmHg 44%
    18:00 +1°C° 0 mm 3 mps 749 mmHg 46%
    19:00 0°C° 0 mm 3 mps 749 mmHg 49%
    20:00 -1°C° 0 mm 4 mps 749 mmHg 51%
    21:00 -1°C° 0.1 mm 4 mps 748 mmHg 55%
    22:00 -1°C° 0.1 mm 4 mps 748 mmHg 59%
    23:00 -1°C° 0.1 mm 4 mps 748 mmHg 62%

    25 February, Monday

    Time Temperature Precipitation Wind Pressure Humidity
    00:00 -1°C° 0 mm 5 mps 747 mmHg 66%
    01:00 -1°C° 0 mm 5 mps 747 mmHg 70%
    02:00 -1°C° 0 mm 5 mps 746 mmHg 75%
    03:00 -1°C° 0.1 mm 5 mps 746 mmHg 80%
    04:00 -2°C° 0.1 mm 6 mps 746 mmHg 85%
    05:00 -2°C° 0.1 mm 6 mps 745 mmHg 90%
    06:00 -2°C° 0.1 mm 6 mps 745 mmHg 90%
    07:00 -1°C° 0.1 mm 5 mps 745 mmHg 90%
    08:00 -1°C° 0.1 mm 5 mps 745 mmHg 90%
    09:00 -2°C° 0.1 mm 6 mps 745 mmHg 87%
    10:00 -2°C° 0.1 mm 6 mps 745 mmHg 83%
    11:00 -2°C° 0.1 mm 7 mps 745 mmHg 80%
    12:00 -1°C° 0 mm 7 mps 745 mmHg 76%
    13:00 0°C° 0 mm 7 mps 745 mmHg 72%
    14:00 0°C° 0 mm 7 mps 745 mmHg 68%
    15:00 0°C° 0 mm 7 mps 745 mmHg 68%
    16:00 +1°C° 0 mm 6 mps 745 mmHg 67%
    17:00 +1°C° 0 mm 6 mps 744 mmHg 66%
    18:00 -1°C° 0.1 mm 6 mps 745 mmHg 69%
    19:00 0°C° 0.1 mm 5 mps 745 mmHg 72%
    20:00 -1°C° 0.1 mm 5 mps 745 mmHg 75%
    21:00 -1°C° 0.1 mm 5 mps 746 mmHg 77%
    22:00 -2°C° 0.1 mm 5 mps 746 mmHg 78%
    23:00 -2°C° 0.1 mm 5 mps 746 mmHg 80%
    Show more